Location: Launay
(47.2429°N, 1.5727°E)
Time: 18:13:24
(UTC+00:00)

SL-16 R/B - Pass Details

Date: 19 May 2025
Orbit: 841 x 844 km, 71.0° (Epoch: 22 June)

Event Time Altitude Azimuth Distance (km) Brightness Sun altitude
Rises 20:56:57 0° 339° (NNW) 3,413 6.8 -12.3°
Reaches altitude 10° 21:00:36 10° 2° (N) 2,475 5.3 -12.7°
Maximum altitude 21:03:46 15° 36° (NE) 2,139 4.5 -13.1°
Drops below altitude 10° 21:06:56 10° 71° (ENE) 2,470 4.4 -13.4°
Enters shadow 21:09:30 - 89° (E) 3,096 4.8 -13.7°
